TimeCDT,TemperatureF,Dew PointF,Humidity,Sea Level PressureIn,VisibilityMPH,Wind Direction,Wind SpeedMPH,Gust SpeedMPH,PrecipitationIn,Events,Conditions,WindDirDegrees,DateUTC
12:41 AM,51.8,48.2,88,30.02,6.0,SSE,11.5,-,N/A,,Overcast,150,2013-10-30 05:41:00
12:53 AM,51.1,48.0,89,30.02,5.0,SE,11.5,-,N/A,,Overcast,140,2013-10-30 05:53:00
1:53 AM,51.1,48.9,92,30.02,4.0,SE,10.4,-,N/A,,Overcast,130,2013-10-30 06:53:00
2:24 AM,51.8,50.0,94,30.01,4.0,SE,8.1,-,0.00,,Overcast,130,2013-10-30 07:24:00
2:40 AM,51.8,50.0,94,30.01,2.5,ESE,9.2,-,0.00,,Overcast,120,2013-10-30 07:40:00
2:53 AM,50.0,50.0,100,30.00,1.8,ESE,9.2,-,0.00,,Overcast,110,2013-10-30 07:53:00
3:15 AM,50.0,50.0,100,29.99,1.5,ESE,10.4,-,N/A,,Overcast,120,2013-10-30 08:15:00
3:53 AM,51.1,50.0,96,30.00,1.2,SE,6.9,-,N/A,,Overcast,130,2013-10-30 08:53:00
4:45 AM,51.8,51.8,100,29.97,0.8,ESE,10.4,-,N/A,,Overcast,120,2013-10-30 09:45:00
4:53 AM,51.1,51.1,100,29.97,0.8,ESE,11.5,-,N/A,,Overcast,120,2013-10-30 09:53:00
5:04 AM,51.8,51.8,100,29.97,1.0,SE,10.4,-,N/A,,Overcast,130,2013-10-30 10:04:00
5:12 AM,51.8,51.8,100,29.96,0.8,ESE,11.5,-,N/A,,Overcast,120,2013-10-30 10:12:00
5:20 AM,51.8,51.8,100,29.96,1.0,ESE,9.2,-,N/A,,Overcast,120,2013-10-30 10:20:00
5:53 AM,51.1,51.1,100,29.97,0.8,SE,9.2,-,N/A,,Overcast,130,2013-10-30 10:53:00
6:04 AM,51.8,51.8,100,29.97,1.0,SE,9.2,-,N/A,,Overcast,130,2013-10-30 11:04:00
6:25 AM,51.8,51.8,100,29.96,2.5,SE,9.2,-,N/A,,Overcast,130,2013-10-30 11:25:00
6:48 AM,51.8,51.8,100,29.96,1.5,SE,9.2,-,N/A,,Overcast,140,2013-10-30 11:48:00
6:53 AM,51.1,51.1,100,29.97,1.2,SE,10.4,-,N/A,,Overcast,140,2013-10-30 11:53:00
7:07 AM,51.8,51.8,100,29.95,0.8,SE,10.4,-,N/A,,Overcast,130,2013-10-30 12:07:00
7:53 AM,51.1,51.1,100,29.95,0.5,SE,12.7,-,N/A,Fog,Fog,130,2013-10-30 12:53:00
8:53 AM,52.0,52.0,100,29.96,0.5,SE,10.4,-,N/A,Fog,Fog,140,2013-10-30 13:53:00
9:53 AM,53.1,53.1,100,29.91,0.5,East,8.1,-,N/A,Fog,Fog,100,2013-10-30 14:53:00
10:53 AM,53.1,53.1,100,29.94,0.2,NE,8.1,-,N/A,Fog,Fog,40,2013-10-30 15:53:00
11:02 AM,53.6,53.6,100,29.93,0.2,NNE,6.9,-,0.01,Fog-Rain-Thunderstorm,Light Rain,30,2013-10-30 16:02:00
11:49 AM,53.6,53.6,100,29.98,0.8,Variable,3.5,-,0.11,Rain-Thunderstorm,Thunderstorms and Rain,0,2013-10-30 16:49:00
11:53 AM,53.1,53.1,100,29.99,1.0,East,4.6,-,0.12,Rain-Thunderstorm,Thunderstorms and Rain,80,2013-10-30 16:53:00
12:04 PM,53.6,53.6,100,29.99,1.2,East,6.9,-,0.04,Rain-Thunderstorm,Thunderstorms and Rain,100,2013-10-30 17:04:00
12:14 PM,53.6,53.6,100,29.98,1.0,SSE,5.8,-,0.06,Rain-Thunderstorm,Thunderstorms and Rain,150,2013-10-30 17:14:00
12:46 PM,53.6,53.6,100,29.98,1.8,SSE,4.6,-,0.18,Rain-Thunderstorm,Rain,150,2013-10-30 17:46:00
12:53 PM,53.1,53.1,100,29.98,1.8,ESE,6.9,-,0.22,Rain-Thunderstorm,Heavy Rain,120,2013-10-30 17:53:00
1:01 PM,53.6,53.6,100,29.95,1.8,ESE,5.8,-,0.03,Rain,Rain,120,2013-10-30 18:01:00
1:09 PM,53.6,53.6,100,29.93,2.0,East,5.8,-,0.05,Rain,Rain,100,2013-10-30 18:09:00
1:20 PM,53.6,53.6,100,29.92,5.0,ENE,3.5,-,0.06,Rain,Light Rain,70,2013-10-30 18:20:00
1:45 PM,53.6,53.6,100,29.86,8.0,East,11.5,-,0.06,Rain,Light Rain,80,2013-10-30 18:45:00
1:53 PM,55.0,55.0,100,29.86,10.0,East,11.5,-,0.06,Rain,Light Rain,90,2013-10-30 18:53:00
2:06 PM,55.4,55.4,100,29.83,10.0,East,15.0,-,0.00,,Mostly Cloudy,100,2013-10-30 19:06:00
2:20 PM,57.2,55.4,94,29.82,9.0,East,13.8,-,0.00,,Scattered Clouds,100,2013-10-30 19:20:00
2:53 PM,57.9,55.9,93,29.81,10.0,ESE,21.9,-,0.00,,Mostly Cloudy,110,2013-10-30 19:53:00
3:53 PM,61.0,55.9,83,29.78,10.0,ESE,17.3,24.2,N/A,,Clear,120,2013-10-30 20:53:00
4:45 PM,59.0,57.2,94,29.77,10.0,SE,12.7,-,N/A,,Mostly Cloudy,130,2013-10-30 21:45:00
4:53 PM,57.9,55.9,93,29.78,10.0,SE,13.8,-,N/A,,Mostly Cloudy,140,2013-10-30 21:53:00
5:03 PM,57.2,55.4,94,29.77,10.0,SE,15.0,-,N/A,,Mostly Cloudy,130,2013-10-30 22:03:00
5:43 PM,57.2,55.4,94,29.75,10.0,SE,13.8,-,N/A,,Overcast,140,2013-10-30 22:43:00
5:53 PM,57.0,55.9,96,29.76,10.0,SE,13.8,21.9,N/A,,Overcast,140,2013-10-30 22:53:00
6:32 PM,57.2,55.4,94,29.75,10.0,SSE,12.7,-,N/A,,Overcast,150,2013-10-30 23:32:00
6:53 PM,57.0,55.9,96,29.75,10.0,SE,12.7,-,N/A,,Overcast,140,2013-10-30 23:53:00
7:53 PM,57.0,55.9,96,29.74,10.0,SSE,12.7,-,N/A,,Overcast,150,2013-10-31 00:53:00
8:53 PM,57.9,57.0,97,29.71,10.0,SSE,11.5,-,N/A,,Overcast,150,2013-10-31 01:53:00
9:53 PM,57.9,57.0,97,29.69,10.0,SSE,8.1,-,N/A,,Overcast,150,2013-10-31 02:53:00
10:53 PM,60.1,59.0,96,29.67,10.0,South,10.4,-,N/A,,Overcast,170,2013-10-31 03:53:00
11:53 PM,60.1,59.0,96,29.63,10.0,South,6.9,-,N/A,,Overcast,170,2013-10-31 04:53:00